Date String (YYYY-MM-DD hh:mm:ss) UTC,Instrument flags,absolute air pressure of the measurement (hPa),sample flow rate (lpm),inlet stack bypass flow (lpm),air temperature of the measurement (°C),ambient temperature measured by the external sensor (°C),aerosol sample conditioner tube jacket temperature (°C),OPC LED temperature (°C),internal box temperature (°C),relative humidity of the measurement (%),span deviation,mass concentration of particles derived from Lorenz-Mie calculation of OPC scattering (μg/m³),mass concentration of particles derived from Lorenz-Mie calculation of OPC scattering (μg/m³),mass concentration of particles derived from Lorenz-Mie calculation of OPC scattering (μg/m³)
DateTimeUTC,F1_M11,P_M11,Q1_M11,Q2_M11,T1_M11,T2_M11,T3_M11,T4_M11,T5_M11,U1_M11,ZSPAN_M11,X0_M11,X2_M11,X1_M11
2023-12-02 13:00:00,SystemResetWarning,0821.1,5.00,000.00,018.7,017.6,000.0,027.3,020.0,11.6,0000.0,0011.33,0008.26,0007.93
2023-12-02 13:01:00,SystemResetWarning,0821.1,5.00,000.00,018.8,017.9,000.0,027.2,020.4,11.6,0000.0,0010.72,0007.86,0007.56
2023-12-02 13:02:00,SystemResetWarning,0821.2,5.00,000.00,018.9,018.8,000.0,027.2,020.9,11.5,0000.0,0010.04,0007.32,0007.05
2023-12-02 13:03:00,SystemResetWarning,0821.3,4.99,000.00,019.0,019.1,000.0,027.2,020.8,11.5,0000.0,0009.33,0006.68,0006.44
2023-12-02 13:04:00,SystemResetWarning,0821.1,4.99,000.00,019.0,018.9,000.0,027.2,020.4,11.6,0000.0,0008.72,0006.14,0005.91
2023-12-02 13:05:00,SystemResetWarning,0821.0,5.01,000.00,019.0,018.8,000.0,027.2,020.2,11.8,0000.0,0008.18,0005.62,0005.40
2023-12-02 13:06:00,SystemResetWarning,0821.0,5.00,000.00,018.9,018.6,000.0,027.2,020.1,12.0,0000.0,0007.66,0005.18,0004.98
2023-12-02 13:07:00,SystemResetWarning,0821.3,5.00,000.00,018.9,018.4,000.0,027.2,020.0,12.2,0000.0,0006.75,0004.60,0004.45
2023-12-02 13:08:00,SystemResetWarning,0821.5,5.00,000.00,018.9,018.3,000.0,027.2,020.0,12.2,0000.0,0005.62,0004.05,0003.93
2023-12-02 13:09:00,SystemResetWarning,0821.5,5.00,000.00,018.8,018.2,000.0,027.2,020.0,12.2,0000.0,0004.64,0003.59,0003.48
2023-12-02 13:10:00,SystemResetWarning,0821.3,5.00,000.00,018.8,018.1,000.0,027.2,020.0,12.3,0000.0,0003.85,0003.21,0003.08
2023-12-02 13:11:00,SystemResetWarning,0821.3,5.01,000.00,018.8,018.0,000.0,027.2,020.0,12.2,0000.0,0003.21,0002.67,0002.47
2023-12-02 13:12:00,SystemResetWarning,0821.0,5.02,000.00,018.8,018.0,000.0,027.2,020.0,12.3,0000.0,0002.70,0002.18,0002.00
2023-12-02 13:13:00,SystemResetWarning,0821.0,4.99,000.00,018.8,018.0,000.0,027.2,020.0,12.4,0000.0,0002.77,0002.15,0001.96
2023-12-02 13:14:00,SystemResetWarning,0821.2,4.99,000.00,018.8,017.9,000.0,027.2,020.0,12.3,0000.0,0003.09,0002.45,0002.25
2023-12-02 13:15:00,SystemResetWarning,0821.2,5.00,000.00,018.8,017.9,000.0,027.2,020.0,12.3,0000.0,0003.38,0002.75,0002.57
2023-12-02 13:16:00,SystemResetWarning,0821.0,5.00,000.00,018.8,017.8,000.0,027.2,020.0,12.2,0000.0,0003.78,0003.11,0002.94
2023-12-02 13:17:00,SystemResetWarning,0821.1,5.00,000.00,018.8,017.8,000.0,027.2,020.0,12.1,0000.0,0004.62,0003.35,0003.24
2023-12-02 13:18:00,SystemResetWarning,0821.1,5.00,000.00,018.8,017.8,000.0,027.2,020.0,11.7,0000.0,0005.63,0003.59,0003.47
2023-12-02 13:19:00,SystemResetWarning,0821.1,5.00,000.00,018.8,017.7,000.0,027.2,020.0,11.7,0000.0,0006.37,0003.94,0003.81
2023-12-02 13:20:00,SystemResetWarning,0821.1,5.00,000.00,018.8,017.7,000.0,027.2,020.0,11.8,0000.0,0007.09,0004.28,0004.13
2023-12-02 13:21:00,SystemResetWarning,0821.1,5.00,000.00,018.8,017.7,000.0,027.2,020.0,11.9,0000.0,0007.48,0004.54,0004.38
2023-12-02 13:22:00,SystemResetWarning,0821.1,5.00,000.00,018.8,017.7,000.0,027.2,020.0,11.9,0000.0,0007.78,0004.80,0004.64
2023-12-02 13:23:00,SystemResetWarning,0821.1,5.00,000.00,018.7,017.6,000.0,027.2,020.0,11.8,0000.0,0007.93,0004.98,0004.81
2023-12-02 13:24:00,SystemResetWarning,0821.1,5.01,000.00,018.7,017.6,000.0,027.2,020.0,11.8,0000.0,0007.97,0005.06,0004.88
2023-12-02 13:25:00,SystemResetWarning,0821.1,5.00,000.00,018.7,017.6,000.0,027.2,020.0,11.9,0000.0,0007.86,0004.95,0004.78
2023-12-02 13:26:00,SystemResetWarning,0821.1,5.00,000.00,018.7,017.6,000.0,027.2,020.0,11.9,0000.0,0007.74,0004.83,0004.66
2023-12-02 13:27:00,SystemResetWarning,0821.1,5.00,000.00,018.7,017.6,000.0,027.2,020.0,11.8,0000.0,0007.66,0004.73,0004.54
2023-12-02 13:28:00,SystemResetWarning,0821.1,5.00,000.00,018.7,017.6,000.0,027.2,020.0,11.9,0000.0,0007.23,0004.60,0004.42
2023-12-02 13:29:00,SystemResetWarning,0820.9,5.00,000.00,018.8,017.7,000.0,027.2,020.3,12.0,0000.0,0006.60,0004.50,0004.31
2023-12-02 13:30:00,SystemResetWarning,0821.1,5.00,000.00,018.9,018.5,000.0,027.2,020.8,12.0,0000.0,0006.28,0004.30,0004.11
2023-12-02 13:31:00,SystemResetWarning,0821.1,5.00,000.00,019.0,019.1,000.0,027.2,020.9,11.9,0000.0,0005.88,0004.07,0003.90
2023-12-02 13:32:00,SystemResetWarning,0821.0,4.99,000.00,019.0,019.0,000.0,027.2,020.6,11.9,0000.0,0005.66,0003.94,0003.77
2023-12-02 13:33:00,SystemResetWarning,0821.1,4.99,000.00,019.0,018.9,000.0,027.2,020.3,11.9,0000.0,0005.37,0003.79,0003.61
2023-12-02 13:34:00,SystemResetWarning,0821.0,5.00,000.00,019.0,018.7,000.0,027.2,020.1,11.7,0000.0,0005.14,0003.67,0003.49
2023-12-02 13:35:00,SystemResetWarning,0821.0,5.01,000.00,018.9,018.5,000.0,027.2,020.0,11.8,0000.0,0005.00,0003.61,0003.45
2023-12-02 13:36:00,SystemResetWarning,0821.0,5.00,000.00,018.9,018.4,000.0,027.2,020.0,11.7,0000.0,0005.17,0003.70,0003.52
2023-12-02 13:37:00,SystemResetWarning,0821.0,5.00,000.00,018.9,018.3,000.0,027.2,020.0,11.4,0000.0,0005.42,0003.81,0003.63
2023-12-02 13:38:00,SystemResetWarning,0821.1,5.00,000.00,018.9,018.2,000.0,027.2,020.0,11.1,0000.0,0005.52,0003.87,0003.70
2023-12-02 13:39:00,SystemResetWarning,0821.0,5.00,000.00,018.8,018.1,000.0,027.2,020.0,11.1,0000.0,0005.68,0003.93,0003.74
2023-12-02 13:40:00,SystemResetWarning,0821.1,5.00,000.00,018.8,018.1,000.0,027.2,020.0,11.1,0000.0,0006.39,0003.98,0003.80
2023-12-02 13:41:00,SystemResetWarning,0821.1,5.00,000.00,018.8,018.0,000.0,027.2,020.0,11.2,0000.0,0006.37,0004.00,0003.82
2023-12-02 13:42:00,SystemResetWarning,0821.1,4.99,000.00,018.8,018.0,000.0,027.2,020.0,11.2,0000.0,0006.21,0004.02,0003.83
2023-12-02 13:43:00,SystemResetWarning,0821.1,5.00,000.00,018.8,018.0,000.0,027.2,020.0,11.2,0000.0,0006.14,0004.00,0003.83
2023-12-02 13:44:00,SystemResetWarning,0821.2,5.00,000.00,018.8,017.9,000.0,027.2,020.0,11.2,0000.0,0005.88,0003.91,0003.77
2023-12-02 13:45:00,SystemResetWarning,0821.1,5.00,000.00,018.8,017.9,000.0,027.2,020.0,11.2,0000.0,0005.64,0003.80,0003.67
2023-12-02 13:46:00,SystemResetWarning,0821.2,5.00,000.00,018.8,017.9,000.0,027.2,020.0,11.1,0000.0,0005.45,0003.68,0003.55
2023-12-02 13:47:00,SystemResetWarning,0821.2,5.01,000.00,018.8,017.9,000.0,027.2,020.0,11.1,0000.0,0005.18,0003.54,0003.42
2023-12-02 13:48:00,SystemResetWarning,0821.1,5.01,000.00,018.8,017.9,000.0,027.2,020.0,11.2,0000.0,0004.89,0003.40,0003.28
2023-12-02 13:49:00,SystemResetWarning,0821.2,5.00,000.00,018.8,017.9,000.0,027.2,020.0,11.2,0000.0,0004.59,0003.27,0003.16
2023-12-02 13:50:00,SystemResetWarning,0821.2,4.99,000.00,018.8,017.9,000.0,027.2,020.0,11.1,0000.0,0004.30,0003.13,0002.96
2023-12-02 13:51:00,SystemResetWarning,0821.2,4.99,000.00,018.8,017.9,000.0,027.2,020.0,10.9,0000.0,0003.61,0002.92,0002.71
2023-12-02 13:52:00,SystemResetWarning,0821.1,4.99,000.00,018.8,017.8,000.0,027.2,020.0,10.9,0000.0,0003.21,0002.74,0002.53
2023-12-02 13:53:00,SystemResetWarning,0821.0,5.01,000.00,018.8,017.8,000.0,027.2,020.0,10.6,0000.0,0003.00,0002.54,0002.32
2023-12-02 13:54:00,SystemResetWarning,0821.1,5.01,000.00,018.8,017.8,000.0,027.2,020.0,10.6,0000.0,0002.75,0002.31,0002.10
2023-12-02 13:55:00,SystemResetWarning,0821.1,5.00,000.00,018.8,017.8,000.0,027.2,020.0,10.8,0000.0,0002.72,0002.17,0001.97
2023-12-02 13:56:00,SystemResetWarning,0821.2,4.99,000.00,018.8,017.8,000.0,027.2,020.0,10.6,0000.0,0002.78,0002.18,0001.96
2023-12-02 13:57:00,SystemResetWarning,0821.2,5.00,000.00,018.8,017.7,000.0,027.2,020.0,10.9,0000.0,0002.82,0002.20,0001.97
2023-12-02 13:58:00,SystemResetWarning,0821.2,4.99,000.00,018.8,017.7,000.0,027.2,020.0,10.6,0000.0,0002.87,0002.16,0001.92
2023-12-02 13:59:00,SystemResetWarning,0821.1,5.00,000.00,018.7,017.7,000.0,027.2,020.0,10.7,0000.0,0002.79,0002.09,0001.86
